Tracking 18843 objects as of 20-November-2017
HD Live streaming from Space Station
objects crossing your sky now

FLOCK 2K 45

Track FLOCK 2K 45 now!
10-day predictions
FLOCK 2K 45 is classified as:


NORAD ID: 42856
Int'l Code: 2017-042AH
Perigee: 461.0 km
Apogee: 477.0 km
Inclination: 97.0 °
Period: 93.8 minutes
Semi major axis: 6840 km
RCS: Unknown
Launch date: July 14, 2017
Source: United States (US)
Launch site: TYURATAM MISSILE AND SPACE COMPLEX (TTMTR)
aabbcc
Your satellite tracking list
Your tracking list is empty




NASA's NSSDC Master Catalog

Two Line Element Set (TLE):
1 42856U 17042AH  17323.96658088  .00004419  00000-0  13342-3 0  9999
2 42856  96.9945 226.1353 0011705 140.2377 219.9727 15.34679122 19523
Source of the keplerian elements: AFSPC